Voltar ao catálogo

COSMOS 773

AtivoMilitarLEO
NORAD 8343·PAYLOAD·🇷🇺 Russia

Lançado Sep 30, 1975 de Plesetsk Cosmodrome

Loading…

Próximas Passagens (próximas 24 horas)

TLE

AtualizadoSource: Space-Track

Época: Sep 14, 2026, 12:55 UTC

1 08343U 75094A   26257.53855390  .00000093  00000-0  40868-4 0  9995
2 08343  74.0558 192.1783 0011533 339.9072  20.1625 14.35981851665194

Acompanhe COSMOS 773 em tempo real com AllMySat

Download on the App Store